GFSNE_sfc_dewp_108.txt.gz
Dewpoint
63 62 61 60 60 59 58 57 56 53 54 56 57 59 60 60 58 57 57 51 49 48 49 50 52 53 54 55 56 57 58 58 59 59 59 60 60 59
62 62 60 60 60 61 60 59 58 55 53 55 56 58 59 59 57 59 58 52 49 48 47 48 49 51 52 52 53 54 55 56 57 57 57 56 56 56
61 61 59 60 60 60 61 60 59 58 55 55 57 59 58 59 58 58 59 58 55 48 47 47 47 48 49 49 50 51 52 53 53 53 54 54 53 53
60 59 59 59 59 59 59 59 59 59 58 55 56 58 58 57 57 57 57 57 56 46 46 46 46 45 46 46 46 46 47 48 48 49 50 51 51 50
59 59 58 58 58 59 58 58 58 57 57 56 55 57 57 57 57 54 50 47 44 44 43 43 43 43 43 43 43 43 43 43 42 43 43 44 45 44
57 56 53 52 50 51 55 57 57 56 56 56 55 54 55 56 52 46 44 45 44 43 43 42 42 42 41 41 41 41 40 40 39 39 39 38 38 38
50 46 45 40 38 39 46 53 57 56 55 55 53 53 53 54 50 48 44 41 41 41 40 40 40 40 40 40 39 39 38 38 37 37 35 34 33 32
44 43 41 40 38 36 36 35 35 49 54 54 53 52 52 53 51 46 39 38 35 40 37 35 36 35 36 37 37 36 35 35 34 33 32 31 30 28
40 40 39 38 38 38 35 35 34 34 34 45 53 50 52 52 50 44 43 42 37 36 34 31 34 32 34 36 36 35 34 34 33 31 30 28 26 23
35 35 35 35 34 34 33 33 32 32 32 33 33 32 33 35 47 46 42 33 33 32 34 30 32 31 33 34 34 34 34 33 32 31 29 25 22 20
31 32 32 31 32 33 32 30 30 30 31 32 32 32 32 33 36 38 36 35 32 29 30 31 30 27 28 29 34 35 34 33 32 31 30 26 23 20
29 30 30 30 30 30 29 28 25 26 27 27 26 26 27 28 30 31 36 35 29 28 28 30 28 27 23 26 28 29 30 30 29 25 20 18 17 19
26 27 28 29 29 29 28 27 26 27 26 25 25 24 24 23 24 25 26 28 26 23 26 29 27 29 26 23 26 28 27 26 22 18 17 16 16 16
24 26 27 28 28 27 27 26 26 25 25 23 22 22 21 21 22 23 24 25 26 25 28 30 28 30 26 25 24 27 26 21 17 14 17 14 14 15
27 26 26 26 26 26 27 27 27 26 24 23 22 22 23 24 25 24 24 23 23 23 25 28 28 30 30 28 25 23 19 16 16 16 15 16 17 17
27 27 26 26 26 26 26 26 26 27 26 26 25 25 25 24 24 24 23 23 21 19 21 24 26 25 24 23 21 19 15 11 11 12 11 13 16 18
28 28 27 27 25 25 24 24 25 26 26 26 25 23 22 21 21 21 21 21 20 17 17 13 17 18 17 15 15 13 12 10 10 9 7 13 18 19
23 23 23 23 21 19 19 19 20 19 20 20 21 19 18 18 17 18 18 17 15 10 7 8 10 12 11 11 15 8 7 8 8 7 6 12 13 16
21 21 21 21 17 13 13 14 15 15 15 18 19 20 18 16 17 15 15 13 10 6 3 5 6 11 10 14 8 13 10 10 10 11 9 9 13 12
16 17 18 17 13 12 12 13 14 16 16 16 18 19 19 18 17 15 15 15 10 5 3 2 3 6 13 17 16 14 7 9 12 10 8 8 13 14
12 13 15 14 12 12 16 16 15 15 16 17 16 16 18 16 14 13 12 10 9 5 3 2 1 7 5 10 16 14 12 6 5 7 8 10 11 10
14 12 12 13 14 14 16 16 16 16 15 14 15 16 17 16 13 13 14 13 9 9 3 3 0 1 4 5 6 8 10 10 7 6 7 8 11 13
15 13 15 15 15 14 12 13 11 12 11 12 13 12 14 13 12 12 12 9 6 5 3 3 1 0 1 0 3 8 4 6 5 5 7 10 8 9

GFSNE_sfc_dewp_111.txt.gz
Dewpoint
65 64 62 61 61 60 59 58 57 53 55 55 57 59 61 61 60 61 59 51 49 49 50 52 53 55 55 55 56 56 57 57 58 59 59 59 60 60
63 62 62 62 61 61 59 60 59 56 54 55 55 57 60 60 58 60 59 52 49 47 48 49 51 52 52 53 53 54 55 56 57 58 59 59 60 59
62 62 61 61 61 60 60 60 60 59 56 55 56 59 60 59 59 59 58 58 54 48 47 47 48 48 49 50 51 52 53 54 55 56 57 57 57 57
61 61 60 60 60 60 61 60 60 59 58 55 56 58 58 59 59 58 58 58 58 48 47 47 47 46 46 47 48 48 49 50 50 51 52 53 54 54
61 61 60 59 59 59 59 59 59 59 58 58 57 58 58 59 58 56 50 47 45 45 44 44 45 46 46 45 46 46 46 46 46 46 47 47 48 49
60 60 59 57 57 57 56 57 58 58 57 57 56 56 57 57 56 49 45 45 44 44 43 43 43 43 44 43 43 43 43 43 42 41 40 40 40 41
53 50 45 41 39 39 45 49 53 55 55 55 55 55 54 54 48 48 44 40 40 41 40 41 41 41 41 43 43 41 41 40 40 39 38 36 36 35
46 43 41 39 37 35 35 35 35 41 50 55 55 53 53 53 51 46 40 38 36 40 35 33 36 35 37 38 39 39 38 38 37 35 34 33 32 31
42 41 39 38 39 39 35 34 33 34 33 38 47 44 49 52 50 45 43 42 37 36 35 32 33 32 34 36 37 37 36 35 35 33 33 32 30 29
34 35 35 34 34 35 34 33 31 31 31 32 32 32 33 34 46 46 43 34 34 34 35 30 32 31 32 34 35 35 34 33 33 32 31 30 29 27
31 32 31 31 32 34 32 31 30 30 30 30 30 30 31 33 38 39 36 35 32 30 32 32 30 27 28 32 33 34 34 33 32 31 30 29 27 26
29 30 31 30 30 30 29 28 26 26 26 27 26 26 26 27 30 32 36 37 31 30 30 29 27 27 24 27 29 31 31 31 31 30 29 26 19 21
26 27 29 30 30 29 28 27 26 27 26 25 24 24 24 23 24 26 28 31 27 24 28 31 29 27 25 23 27 27 27 27 27 26 24 20 16 17
24 26 28 29 29 29 28 28 26 26 25 24 23 22 22 22 22 23 24 25 27 28 30 32 29 27 24 23 23 27 27 28 28 21 21 19 17 17
27 28 28 29 29 28 29 30 30 27 25 23 22 23 24 25 26 25 25 25 25 27 30 31 32 30 30 28 24 26 26 25 19 17 17 18 19 19
31 31 30 29 29 29 30 30 30 30 29 28 27 28 29 28 27 27 24 24 22 22 26 29 30 30 28 29 27 26 21 18 17 16 16 15 18 22
30 30 28 29 27 26 26 26 27 28 27 29 28 26 25 23 24 23 23 23 21 19 20 21 22 22 23 23 21 19 15 14 13 13 8 14 21 22
25 25 24 24 22 21 21 20 20 20 21 21 22 21 20 20 19 19 20 20 17 14 13 13 15 17 17 14 17 14 11 10 9 8 7 12 14 20
22 22 23 22 19 15 14 15 17 17 17 19 20 20 19 18 19 17 16 13 10 7 6 8 12 14 13 15 8 14 12 10 10 11 10 10 14 14
16 17 18 17 14 14 14 16 17 18 18 17 19 20 21 19 18 17 17 16 10 5 4 3 5 10 16 20 17 15 7 10 12 12 9 10 14 16
13 13 15 14 14 14 17 17 17 16 17 19 18 18 20 17 16 14 13 14 10 6 4 3 0 8 7 13 17 14 13 8 5 7 9 10 11 11
16 14 14 14 16 16 18 17 17 16 16 15 17 18 19 17 15 14 15 13 10 9 4 3 1 1 5 6 8 11 10 12 11 11 11 9 10 12
16 15 16 16 16 15 14 15 13 14 12 13 14 14 16 14 13 13 12 10 7 6 4 3 1 1 1 1 4 8 7 7 6 6 8 11 11 11

GFSNE_sfc_dewp_114.txt.gz
Dewpoint
63 62 61 61 60 59 59 59 56 52 53 56 57 59 60 61 60 58 59 51 51 50 51 53 55 55 55 55 56 56 56 56 57 57 57 58 59 60
62 61 61 59 61 60 59 59 57 55 52 55 56 58 59 60 58 60 60 52 49 49 49 50 52 53 53 53 54 54 55 55 56 57 57 58 59 59
62 62 60 57 61 60 60 60 58 58 55 55 57 58 58 58 59 59 60 57 53 48 48 48 49 50 50 51 51 52 53 53 54 55 56 57 58 59
61 61 60 61 60 60 60 59 58 58 56 54 56 57 57 59 59 58 58 59 57 50 48 47 47 48 48 48 49 49 49 50 51 52 53 55 57 57
61 60 60 60 60 60 59 59 58 58 57 55 54 56 58 59 58 57 56 48 48 48 46 46 46 46 46 46 47 47 47 48 48 48 49 49 51 52
60 59 58 57 57 57 56 56 55 56 57 56 56 55 56 57 58 51 46 46 44 43 43 44 45 45 45 45 45 46 46 46 46 45 44 43 43 45
49 44 42 40 39 42 49 44 46 50 53 54 54 54 55 54 52 51 46 41 40 41 40 41 42 42 43 44 45 45 45 44 43 42 41 40 40 40
43 40 39 37 36 36 35 35 34 38 43 47 53 53 54 54 53 50 41 39 37 40 35 33 37 36 38 39 41 41 41 41 40 40 38 37 36 35
43 40 39 39 37 35 34 33 33 33 32 34 40 35 36 40 46 47 44 43 37 36 36 32 33 32 36 37 37 37 37 37 36 35 34 34 33 32
34 34 34 35 36 35 32 31 30 30 30 30 30 30 31 33 36 45 43 33 34 33 35 30 32 31 32 34 36 35 35 34 34 33 33 32 31 30
31 32 32 32 35 35 31 29 27 27 30 30 29 29 30 32 34 39 35 35 32 32 32 31 30 27 30 31 32 34 33 33 32 32 31 30 30 30
29 30 32 31 32 30 29 27 25 25 25 25 25 25 26 26 29 30 34 37 32 31 32 29 27 28 24 27 31 31 31 32 32 31 30 29 29 29
27 28 30 31 31 30 28 27 25 26 25 25 24 24 24 24 24 26 28 31 29 25 29 31 29 27 25 23 26 28 29 28 28 29 29 27 22 22
26 28 30 31 31 31 29 28 26 25 25 24 24 23 23 23 24 25 26 28 30 30 31 32 28 26 24 23 22 26 26 27 27 26 26 22 20 16
29 30 30 30 31 30 31 30 30 28 26 24 24 25 26 26 26 26 26 27 27 28 31 31 28 28 27 25 23 24 25 28 29 26 26 25 25 25
29 30 29 29 28 27 27 29 29 29 27 26 26 28 28 28 26 27 26 25 23 24 27 27 30 31 27 26 26 25 26 23 23 24 24 24 24 26
25 25 24 23 23 24 23 24 25 26 26 27 27 27 26 26 26 27 25 23 21 21 21 23 25 24 23 26 24 24 24 24 22 20 18 20 25 26
22 21 20 20 19 19 20 20 20 21 22 22 22 22 21 22 22 24 25 23 21 21 20 21 23 22 22 22 24 23 23 22 22 20 14 18 20 25
19 18 18 18 17 16 18 19 18 19 20 21 22 22 22 21 22 19 19 17 15 16 20 22 22 21 18 15 15 14 16 16 16 16 16 18 19 20
16 16 16 16 16 16 16 16 16 17 19 19 20 21 21 19 19 17 18 17 15 10 9 9 11 12 18 17 16 14 12 17 18 17 16 17 19 17
15 14 16 16 15 17 17 18 15 16 17 18 18 19 19 18 17 17 15 12 14 13 8 4 3 11 13 19 10 13 14 8 8 11 12 12 13 15
15 16 16 16 16 15 16 13 15 13 14 15 14 15 17 17 16 15 14 14 13 12 7 7 6 8 12 13 13 7 14 14 13 13 10 9 10 5
13 14 15 14 13 14 15 13 12 14 10 10 12 12 10 12 14 14 12 12 10 11 11 9 7 8 6 5 8 9 9 7 12 13 13 14 13 12

GFSNE_sfc_dewp_117.txt.gz
Dewpoint
63 62 61 61 60 59 58 57 55 52 52 54 55 58 61 61 60 59 60 54 51 50 51 53 55 56 56 56 56 56 56 56 56 56 56 57 57 58
63 62 61 61 60 60 59 59 57 54 52 55 56 57 59 59 58 59 58 53 50 49 49 51 52 54 54 54 54 54 55 55 56 55 56 56 57 58
62 62 61 60 59 59 58 57 59 58 55 54 56 56 56 57 57 58 58 58 54 48 48 49 50 50 51 51 51 52 53 53 54 54 55 56 57 58
61 61 60 59 58 57 58 57 58 59 56 53 54 55 55 57 57 58 58 59 58 49 48 48 49 49 49 49 49 49 50 50 51 52 53 54 56 57
61 61 60 59 57 58 59 59 59 59 58 55 54 54 54 57 56 57 56 53 53 49 47 46 47 48 48 48 48 48 48 48 48 48 49 50 51 53
60 61 61 60 57 58 59 59 58 58 57 57 55 55 56 56 57 53 49 47 46 45 45 46 47 47 47 47 47 47 47 47 48 47 47 46 47 49
51 47 46 47 50 53 55 52 54 53 54 54 54 54 54 54 54 52 52 42 40 42 40 39 43 44 45 45 47 46 46 46 46 46 46 44 44 45
42 39 39 39 39 38 38 36 40 48 49 50 52 52 52 52 53 49 42 40 41 40 36 34 37 36 38 41 43 43 43 43 43 43 44 43 41 41
42 43 39 38 35 34 34 33 33 33 33 39 42 35 37 35 36 46 44 42 39 35 35 32 33 32 35 38 40 40 40 40 40 39 39 38 37 36
34 36 38 36 36 34 32 30 29 30 30 30 30 29 31 32 35 40 41 33 34 33 35 31 32 30 32 34 37 37 37 36 36 36 35 34 34 34
31 32 33 31 34 33 30 27 27 27 30 30 30 29 29 31 33 38 35 36 32 32 33 31 30 28 30 31 33 35 35 34 34 33 33 33 32 31
29 30 32 31 31 31 28 27 24 24 25 25 26 26 26 27 29 29 33 35 31 31 32 29 28 28 25 28 31 31 32 32 32 32 32 32 31 28
28 29 31 31 31 30 29 27 25 26 26 25 25 25 25 25 26 27 30 32 31 27 31 31 29 27 26 24 27 29 30 30 29 29 30 30 31 30
27 29 30 32 32 31 30 30 29 27 27 26 25 25 24 25 26 27 28 29 31 30 31 32 28 26 24 24 22 26 26 27 27 25 26 27 28 26
28 29 29 28 28 28 30 30 29 28 27 25 25 25 26 27 28 27 27 28 27 26 29 31 28 28 27 24 22 24 24 26 27 25 26 26 25 26
25 25 25 26 25 25 25 26 27 27 27 26 25 26 27 27 25 26 24 25 24 23 26 27 29 29 26 26 25 24 26 24 26 26 26 26 27 27
22 21 21 21 20 21 21 22 24 25 24 25 25 25 25 25 24 24 23 22 20 21 22 24 26 25 26 27 24 24 24 23 25 24 23 22 24 25
18 17 17 17 17 18 19 19 20 21 22 23 22 22 22 23 23 23 23 21 20 21 21 23 24 24 24 23 26 23 23 23 24 24 23 21 22 25
16 16 16 17 17 16 15 15 16 19 20 20 20 20 21 21 21 20 20 19 21 21 22 23 23 22 19 15 19 24 22 22 22 20 16 18 19 21
16 15 15 16 16 15 17 16 16 16 17 18 18 18 19 18 17 16 16 16 15 11 9 9 11 16 18 15 15 13 17 18 18 18 16 15 19 16
15 16 16 15 15 16 13 14 12 13 14 13 14 15 15 16 15 15 15 13 15 10 7 4 6 11 17 17 9 12 14 11 12 13 13 12 12 15
12 13 13 12 12 13 14 9 10 9 11 11 9 9 10 13 11 11 11 11 12 11 6 9 8 10 13 17 12 8 13 14 13 9 9 11 11 6
2 9 11 9 9 8 10 11 7 6 6 6 7 8 6 7 10 10 9 9 10 9 12 10 8 8 8 6 12 12 10 9 13 15 15 14 12 12

GFSNE_sfc_dewp_123.txt.gz
Dewpoint
54 61 59 59 60 59 58 57 55 52 53 54 56 59 61 61 59 60 59 52 50 49 50 52 55 56 56 58 58 58 59 58 57 57 56 57 58 57
53 58 60 60 60 60 60 58 58 55 52 55 55 57 59 60 59 60 58 53 49 48 48 50 52 54 54 55 56 56 57 57 56 56 56 56 57 56
51 54 59 60 60 60 60 59 58 58 55 55 55 55 59 59 59 60 59 58 54 48 48 48 49 50 51 52 53 54 55 55 54 54 55 55 56 56
49 51 55 60 59 60 60 59 59 58 57 55 53 54 54 58 58 57 58 59 58 49 47 47 47 48 48 49 49 50 52 52 52 53 53 54 55 55
50 51 53 58 59 59 59 59 59 58 57 56 54 53 54 56 56 57 57 57 55 49 46 45 46 47 47 47 47 49 49 50 50 50 49 50 51 52
51 52 53 57 58 58 58 59 59 58 58 57 55 53 54 55 55 54 52 52 50 47 44 43 45 45 45 45 45 46 47 49 49 49 48 47 47 48
51 49 47 47 49 56 58 59 58 57 57 56 55 53 52 54 55 54 54 48 44 45 43 38 40 40 40 41 44 45 45 46 48 49 48 46 46 47
40 39 39 39 42 43 42 43 50 56 55 55 54 54 54 54 55 54 48 46 46 41 40 35 37 34 36 37 39 40 42 44 46 47 48 47 47 46
33 34 34 34 38 40 38 36 35 35 37 50 54 53 51 48 49 48 47 47 45 37 38 32 33 31 33 35 37 39 41 42 44 44 45 45 45 44
31 31 32 33 33 33 32 31 30 33 32 32 33 32 32 34 39 45 45 34 34 33 35 33 31 29 32 33 36 37 38 40 42 43 43 43 43 43
30 31 30 30 32 34 31 29 29 28 30 31 31 31 32 33 35 38 35 38 33 32 33 32 29 28 29 29 32 35 36 37 38 39 39 39 38 36
27 29 31 31 32 31 29 29 27 27 28 29 29 29 29 29 31 31 34 36 33 32 33 30 28 29 25 29 30 31 32 34 35 35 35 35 35 33
24 26 28 31 31 31 30 28 27 28 28 28 28 28 28 27 28 28 28 30 33 32 32 32 29 28 27 25 26 27 28 29 30 31 32 32 33 31
23 24 26 28 28 28 27 29 29 27 27 26 25 25 25 25 27 28 28 28 28 30 32 32 29 28 25 24 23 25 26 26 27 28 30 31 31 30
21 21 22 22 23 23 25 25 25 25 25 24 24 24 25 26 27 27 28 28 28 27 29 31 29 28 28 25 23 23 23 25 26 25 26 27 27 28
18 18 18 19 18 19 20 21 22 22 22 22 24 25 26 26 25 25 25 25 24 24 27 28 29 29 26 25 24 23 24 21 25 25 25 25 27 27
16 15 15 15 15 15 16 17 18 19 19 20 20 21 22 23 24 25 24 24 22 22 23 25 27 27 27 27 24 24 23 23 25 25 25 24 25 27
13 12 12 12 13 12 13 13 14 15 16 16 17 17 18 19 19 22 23 23 21 21 22 24 25 25 25 24 27 24 24 23 24 25 24 22 22 26
9 9 10 10 12 11 11 11 11 11 12 13 12 13 15 17 17 17 19 19 17 15 15 20 23 24 20 16 21 27 22 23 23 22 23 22 22 24
8 7 7 8 9 9 9 8 8 8 8 9 9 10 10 13 13 14 15 16 14 11 10 12 15 19 19 17 16 18 27 23 21 20 20 21 23 26
7 6 7 6 7 7 4 2 2 2 2 4 5 7 7 10 9 11 11 10 11 8 6 6 7 16 14 16 13 13 16 22 23 20 19 17 17 18
4 5 4 3 2 4 -1 -5 -2 -2 -1 1 1 2 3 7 7 7 9 10 11 11 9 11 11 13 17 13 9 9 11 11 15 15 14 14 13 11
-5 0 -3 -5 -4 -4 1 -6 -7 -9 -6 -5 -4 -1 -1 3 6 5 6 8 9 9 10 9 9 11 13 12 10 10 8 9 13 13 14 14 15 15